Temperature
10 9 8 9 10 10 10 10 10 11 11 10 9 10 11 11 11 10 10 10 9 9 9 8 8 7 7 7 7 7 7 7 7 7 7 7 7 7 7 7 7 7 7 8
9 8 9 10 10 10 10 9 10 10 10 9 9 9 10 10 10 10 10 9 9 8 8 7 7 7 7 7 7 7 7 7 7 7 7 6 6 6 7 7 7 7 7 7
9 8 9 10 9 9 9 9 9 8 9 9 8 8 9 10 10 9 9 9 8 8 7 7 6 6 6 6 6 6 6 6 6 6 6 6 6 6 6 6 6 6 6 6
8 9 9 9 8 8 8 9 9 8 7 7 8 7 9 9 8 8 8 8 7 7 6 6 6 5 5 6 6 6 6 6 6 6 5 5 5 5 5 5 5 5 5 6
8 8 8 8 8 8 7 8 8 8 7 6 7 6 7 9 8 7 7 7 7 6 6 5 5 5 5 5 5 5 5 5 5 5 5 5 4 4 4 4 4 5 5 5
7 8 7 7 7 8 7 7 7 7 6 5 7 7 7 8 8 7 7 7 6 6 5 5 5 4 4 4 5 5 5 5 4 4 4 4 4 4 4 4 4 4 4 4
7 7 7 7 6 6 6 6 6 6 6 6 8 7 7 7 8 7 6 6 6 5 5 5 4 4 4 4 4 4 4 4 4 4 4 3 3 3 3 3 3 3 4 4
6 6 6 6 6 5 6 6 5 6 6 7 7 6 7 7 7 7 7 6 5 5 5 4 4 3 3 3 3 3 3 3 3 3 3 3 3 3 3 3 3 3 3 3
6 5 6 6 6 6 5 5 5 5 5 5 6 7 7 7 6 6 6 6 5 4 4 4 3 3 3 3 3 3 3 3 3 3 3 3 3 2 2 3 3 3 3 3
5 4 5 5 5 5 5 5 4 4 5 6 7 7 6 5 5 5 5 5 4 4 4 3 3 3 2 2 2 2 2 2 2 2 2 2 2 2 2 2 2 2 2 2
5 4 4 5 4 4 4 4 4 4 5 5 5 6 6 5 5 5 4 5 4 4 3 3 3 2 2 2 2 2 2 2 2 2 2 2 2 2 2 2 2 2 2 2
4 3 3 5 5 5 5 4 3 3 4 4 4 5 6 5 5 5 5 5 4 4 3 3 2 2 2 2 1 1 2 1 1 1 1 1 1 1 1 1 1 1 1 1
3 2 3 4 4 3 3 4 3 3 3 3 4 5 5 5 5 5 5 4 4 3 3 2 2 2 1 1 1 1 1 1 1 1 1 1 1 1 1 1 1 1 1 1
4 2 2 3 4 3 2 3 3 2 2 3 4 4 5 4 4 4 4 4 3 3 3 2 2 1 1 1 1 0 0 0 0 0 0 0 0 0 0 0 0 0 0 0
2 1 2 2 3 3 3 3 2 2 2 2 3 4 4 4 4 4 4 3 3 2 2 2 1 1 1 0 0 0 -0 -0 -0 -0 -0 -0 -0 -0 -0 -0 -0 -0 -0 -0
1 1 1 1 3 3 2 3 3 2 2 3 3 3 4 4 4 4 3 3 3 2 1 1 1 0 0 0 -0 -0 -0 -0 -0 -0 -1 -1 -1 -1 -1 -1 -1 -1 -1 -1
0 -0 1 2 3 2 2 2 2 2 2 3 2 3 4 3 3 3 3 2 2 1 1 1 0 0 -0 -0 -1 -1 -1 -1 -1 -1 -1 -1 -1 -1 -1 -1 -1 -1 -1 -1
-0 -0 0 1 1 1 3 4 3 3 2 3 3 3 3 3 3 3 3 2 2 1 1 0 0 -0 -0 -1 -1 -1 -1 -1 -1 -1 -1 -1 -2 -2 -2 -2 -2 -2 -2 -2
-0 -0 0 1 1 2 3 3 2 2 2 2 2 3 3 2 2 2 2 2 1 1 0 0 -0 -0 -1 -1 -1 -1 -1 -1 -2 -2 -2 -2 -2 -2 -2 -2 -2 -2 -3 -3
-1 -1 -0 1 1 2 3 3 3 2 1 2 2 2 2 1 -0 1 1 1 1 1 0 -0 -0 -1 -1 -1 -1 -1 -2 -2 -2 -2 -2 -2 -2 -2 -2 -3 -3 -3 -3 -3
-1 -1 -0 0 1 2 2 2 2 2 2 2 3 2 1 0 0 1 0 0 0 -0 -0 -1 -1 -1 -1 -2 -2 -2 -2 -2 -2 -2 -2 -3 -3 -3 -3 -3 -3 -3 -3 -3
-0 -0 -0 0 1 2 1 1 1 1 2 2 2 2 1 1 0 -0 -0 -0 -1 -1 -1 -1 -1 -2 -2 -2 -2 -2 -2 -2 -3 -3 -3 -3 -3 -3 -3 -4 -4 -4 -4 -4
1 1 1 1 2 2 2 2 2 2 2 2 1 1 1 0 -0 -1 -1 -1 -1 -1 -1 -2 -2 -2 -2 -2 -2 -3 -2 -3 -3 -3 -3 -3 -3 -3 -4 -4 -4 -4 -4 -4
1 0 0 -0 1 2 2 2 2 2 1 1 1 0 -0 -1 -1 -1 -1 -1 -2 -2 -2 -2 -2 -2 -2 -3 -3 -3 -3 -3 -3 -3 -3 -3 -4 -4 -4 -4 -4 -4 -4 -4
1 -1 -1 -1 0 1 2 2 1 1 1 0 0 -0 -1 -1 -1 -1 -2 -2 -2 -2 -2 -2 -2 -3 -3 -3 -3 -3 -3 -3 -3 -3 -4 -4 -4 -4 -4 -4 -4 -4 -4 -5
0 -0 -0 0 1 1 1 2 1 1 0 0 -0 -1 -1 -1 -2 -2 -2 -2 -2 -2 -2 -2 -3 -3 -3 -3 -3 -3 -4 -4 -4 -4 -4 -4 -4 -4 -5 -5 -5 -5 -5 -5
Wind_Speed
3 2 3 4 5 6 5 6 8 5 1 4 8 10 8 4 4 5 4 4 3 3 1 2 2 3 3 2 2 1 1 1 1 0 0 0 1 1 1 1 1 1 1 1
2 3 3 4 4 5 6 7 6 4 1 4 7 11 9 6 6 5 5 4 3 2 1 2 2 2 2 1 1 1 1 0 0 0 1 1 1 1 2 1 1 1 1 2
3 1 2 3 2 4 6 6 5 5 5 6 6 8 7 5 5 3 2 2 1 1 1 1 2 1 1 1 1 1 1 0 1 1 0 1 1 1 1 1 1 2 2 2
1 1 2 3 3 4 6 4 4 5 4 3 3 5 5 5 5 4 3 2 1 1 1 1 1 0 0 0 0 1 1 1 1 1 0 1 1 2 2 2 2 2 3 2
0 1 2 3 3 4 3 3 4 5 5 4 5 5 6 4 5 5 4 3 1 1 1 1 1 1 1 1 0 0 1 1 0 0 1 1 2 2 2 2 2 2 2 2
1 0 1 2 3 3 2 3 4 4 3 5 7 6 5 3 5 4 4 3 2 1 1 1 1 1 1 1 0 0 1 1 1 1 1 2 2 2 2 2 2 2 2 2
2 3 1 1 2 1 2 1 1 1 3 5 4 5 4 1 1 2 4 4 3 2 1 1 1 1 1 1 0 0 0 1 1 1 1 2 2 3 3 3 2 2 2 2
2 2 2 1 1 1 3 2 2 3 3 2 1 5 2 2 3 3 4 4 2 1 1 1 1 1 1 1 1 1 1 1 1 1 2 2 2 2 2 3 2 2 2 3
2 2 1 1 1 1 2 3 1 1 3 3 5 3 1 2 3 3 3 3 2 0 1 2 2 2 2 1 1 1 1 1 1 1 1 2 2 2 2 2 2 2 2 3
2 3 2 2 1 2 2 1 1 2 2 4 5 4 3 3 2 2 1 1 1 1 0 1 2 2 2 1 1 1 1 1 1 1 1 2 1 1 2 2 2 2 3 3
2 2 2 2 4 3 2 2 2 3 3 3 4 3 1 3 4 3 2 2 2 2 1 0 1 1 1 1 1 1 1 1 1 1 1 1 1 2 2 2 3 3 3 3
1 1 3 3 2 1 2 3 3 2 4 3 3 4 2 3 3 3 2 2 2 2 1 1 0 1 2 2 1 1 1 1 1 1 1 1 2 2 2 2 3 2 3 3
0 1 2 2 1 1 2 3 3 2 2 3 4 4 1 2 2 1 1 1 1 1 1 0 1 1 1 2 2 2 1 1 1 1 1 2 2 2 2 3 3 2 3 3
0 2 5 5 3 2 4 5 4 4 5 6 8 8 5 3 3 3 2 1 1 0 0 0 0 0 1 2 2 2 3 2 2 1 2 2 2 2 2 3 2 3 3 3
0 3 5 8 8 6 7 8 8 9 9 8 8 9 10 6 4 3 1 1 1 1 1 0 0 1 1 2 2 2 2 2 2 2 2 2 2 2 2 2 2 3 3 3
1 3 3 6 7 8 10 11 11 11 11 12 12 13 8 5 4 3 2 2 2 2 1 1 1 1 2 2 2 2 2 2 2 2 2 2 2 2 2 2 2 3 3 3
3 2 2 4 3 5 9 10 11 9 9 8 11 12 6 5 5 4 3 3 3 2 1 1 2 2 2 2 1 1 2 2 2 2 2 2 2 2 2 2 2 2 2 2
4 4 3 4 3 7 6 3 6 8 9 9 9 8 5 5 5 3 2 2 2 1 1 1 1 2 2 1 1 1 1 2 2 2 2 2 2 2 2 2 2 2 2 2
5 5 3 3 5 8 4 3 3 4 7 6 8 8 4 2 4 3 1 1 1 1 1 2 1 1 1 1 1 1 2 2 2 2 2 2 1 2 2 2 2 2 2 2
3 4 4 4 5 6 3 1 2 1 6 3 4 5 3 1 3 4 2 2 2 1 0 0 0 1 1 1 0 0 2 2 2 2 2 2 1 1 2 2 2 2 2 3
4 5 8 8 7 7 3 2 3 2 6 2 3 4 3 3 5 3 2 2 2 1 1 0 0 1 1 1 0 1 2 2 2 2 2 2 1 1 1 2 2 2 3 3
7 6 7 6 7 8 4 5 5 6 1 1 1 2 3 3 2 2 2 2 2 2 1 0 1 1 1 1 0 1 2 2 2 2 2 2 1 2 2 2 2 2 2 3
7 7 5 7 8 3 6 5 4 1 2 2 1 2 2 3 3 3 3 3 3 2 1 0 1 1 2 1 0 1 2 2 2 1 1 2 2 1 1 2 2 2 2 2
5 3 4 6 8 5 5 4 3 3 3 2 1 2 2 4 4 3 3 3 3 2 1 0 0 2 2 2 1 1 2 1 1 1 1 2 1 2 2 2 2 2 2 2
5 5 5 8 8 6 5 5 4 3 3 2 2 2 3 4 4 4 3 3 3 2 1 1 1 2 3 2 1 2 1 1 1 1 1 1 1 2 2 2 2 2 2 2
6 8 8 8 5 4 4 2 3 4 4 3 3 3 3 3 4 4 3 3 2 2 1 1 1 2 2 2 2 1 1 0 0 1 1 1 1 2 2 2 2 3 3 5
Wind_Direction
176 200 218 227 235 263 287 281 273 277 251 258 256 266 263 233 223 222 223 221 218 214 168 123 114 106 107 98 94 107 95 8 24 91 270 293 301 312 305 299 297 289 296 304
198 239 272 290 287 275 275 279 282 302 301 271 271 269 262 233 230 221 222 219 212 203 155 146 120 105 107 107 86 61 23 326 143 129 261 271 263 261 255 279 291 266 273 279
211 300 307 276 279 277 265 260 277 295 309 266 275 276 244 225 204 196 206 198 161 144 166 141 116 114 100 76 66 26 343 302 137 92 263 312 314 285 303 294 284 266 254 255
233 267 280 269 269 270 267 288 288 286 289 274 239 279 251 214 201 200 196 191 178 161 174 149 129 54 55 61 54 21 316 305 123 100 190 253 262 273 271 273 269 272 260 244
293 331 286 269 284 284 292 319 282 265 263 281 242 251 267 204 218 212 196 188 178 148 157 158 159 236 344 38 51 321 312 317 95 160 226 246 263 262 274 287 281 274 272 256
244 260 308 307 314 294 310 299 276 247 246 259 227 220 264 224 220 195 185 181 165 144 149 154 150 113 43 28 151 195 282 308 302 243 246 238 256 270 283 293 287 285 282 266
247 198 166 321 300 275 293 300 311 255 227 243 197 211 246 217 66 144 168 167 147 139 114 70 45 49 33 16 87 176 286 288 290 271 263 252 258 262 260 268 271 288 289 280
260 248 159 173 255 246 246 240 213 248 263 291 233 231 231 120 80 80 119 130 127 115 85 40 41 31 9 357 356 346 294 281 289 278 274 279 270 265 266 272 271 271 277 276
294 272 118 142 328 310 233 228 270 274 280 273 245 230 180 91 90 97 106 120 121 102 40 32 32 26 9 5 343 321 307 290 299 295 294 285 289 291 282 281 291 284 282 290
316 283 244 156 200 253 282 303 126 199 264 266 254 230 222 179 192 182 151 154 169 148 59 6 5 13 14 357 351 342 326 306 298 312 295 297 295 294 296 297 295 291 292 297
290 248 239 191 206 211 184 199 219 239 250 257 279 269 76 163 173 181 199 191 187 169 188 271 313 4 14 15 22 15 348 326 311 302 295 308 310 308 302 289 287 292 296 296
326 261 256 226 170 223 224 205 186 210 254 243 265 279 57 103 132 147 188 190 196 166 164 205 195 46 25 16 4 348 334 310 294 295 306 312 307 299 291 290 294 302 300 297
326 205 284 251 194 210 258 241 223 237 264 247 248 260 133 85 53 60 188 231 215 181 185 130 51 28 2 349 347 339 336 317 294 300 305 309 304 297 291 298 306 308 303 302
300 219 219 238 265 230 249 244 225 219 232 249 240 258 271 297 304 309 301 284 309 269 225 108 30 334 336 336 342 350 346 345 331 319 301 294 288 285 293 302 306 303 299 298
222 244 246 264 275 269 256 249 230 230 234 242 260 265 273 288 286 285 279 268 255 251 262 272 314 316 320 330 345 347 341 339 334 326 311 298 296 303 311 314 309 307 305 299
201 259 271 264 254 262 267 255 240 241 244 252 267 272 272 279 288 288 284 282 267 263 279 296 306 318 319 325 331 332 324 325 331 314 305 312 311 305 303 305 305 308 310 311
192 205 256 262 269 295 267 239 225 231 231 236 250 260 288 291 284 273 270 266 260 253 282 278 282 294 298 298 301 295 306 314 318 308 308 318 311 303 303 303 308 309 312 320
191 198 229 274 301 252 247 204 207 227 240 237 250 267 283 281 288 269 240 242 252 245 271 274 275 285 305 304 295 300 312 308 304 304 307 316 317 309 311 317 317 316 319 323
207 196 226 242 258 266 261 222 188 217 258 237 248 267 282 326 321 289 314 359 248 240 246 244 249 275 299 293 297 331 311 305 306 306 312 314 311 305 309 317 323 323 327 324
216 197 217 235 249 254 245 179 139 145 267 254 234 251 263 309 279 267 339 353 337 329 298 263 309 315 293 287 17 319 302 309 304 308 308 305 298 298 311 317 317 318 319 315
190 206 219 233 245 261 233 171 127 183 253 271 217 228 237 239 239 261 312 319 316 310 291 242 291 297 288 297 130 272 291 289 296 309 311 307 306 305 313 318 312 316 317 318
191 197 210 213 232 250 175 151 190 223 258 271 246 231 232 246 260 276 285 292 302 296 287 219 241 291 313 328 190 274 284 294 309 309 307 307 308 312 319 309 310 314 316 321
206 204 207 210 226 245 182 204 223 217 251 256 253 262 238 249 258 263 264 266 269 260 265 233 224 286 307 316 218 269 295 309 315 314 311 311 320 327 322 308 306 314 318 318
221 196 227 261 264 259 236 238 239 239 245 261 261 260 248 255 260 258 257 260 261 251 257 280 283 288 293 298 281 274 294 308 317 308 309 318 332 330 330 326 317 311 314 316
229 189 222 248 262 276 248 228 240 255 252 253 254 249 243 252 260 254 255 254 248 246 232 207 233 273 284 296 287 298 313 4 347 313 317 331 335 324 331 336 326 312 301 293
218 212 217 240 238 226 243 219 214 231 239 238 251 265 261 249 258 263 262 255 240 240 227 223 245 275 287 296 297 312 335 26 328 328 353 355 348 340 338 335 335 338 317 322
Height
1471 1475 1475 1473 1472 1471 1471 1471 1470 1467 1468 1470 1469 1466 1464 1464 1465 1465 1467 1467 1468 1469 1470 1471 1471 1471 1472 1472 1471 1472 1472 1472 1473 1473 1474 1474 1474 1474 1475 1475 1475 1476 1476 1476
1472 1475 1472 1471 1470 1470 1471 1472 1470 1468 1467 1469 1468 1465 1461 1461 1461 1462 1463 1464 1465 1466 1467 1468 1469 1469 1469 1469 1469 1469 1469 1470 1470 1470 1471 1472 1472 1472 1472 1472 1472 1473 1473 1473
1472 1473 1471 1471 1471 1471 1471 1472 1472 1472 1470 1468 1469 1464 1458 1456 1457 1459 1461 1462 1463 1463 1464 1465 1466 1466 1466 1466 1466 1466 1467 1467 1467 1467 1468 1468 1468 1468 1468 1469 1469 1469 1469 1469
1471 1472 1472 1472 1472 1473 1473 1469 1470 1471 1475 1474 1470 1471 1456 1454 1455 1456 1458 1459 1460 1462 1463 1463 1463 1464 1463 1463 1463 1464 1464 1464 1463 1464 1464 1464 1464 1464 1465 1465 1465 1465 1466 1466
1472 1472 1472 1472 1472 1472 1472 1470 1471 1471 1473 1476 1470 1473 1459 1452 1454 1454 1456 1457 1459 1460 1461 1461 1461 1461 1460 1460 1461 1461 1461 1461 1460 1460 1461 1461 1461 1461 1462 1462 1462 1462 1462 1462
1472 1473 1473 1473 1472 1471 1471 1471 1470 1471 1474 1478 1466 1468 1459 1452 1450 1450 1453 1455 1457 1458 1459 1459 1459 1459 1458 1458 1458 1458 1458 1458 1457 1457 1457 1458 1458 1458 1458 1458 1458 1458 1458 1458
1472 1472 1473 1473 1473 1473 1473 1476 1478 1476 1476 1469 1458 1461 1457 1450 1447 1448 1451 1453 1455 1456 1457 1457 1457 1456 1456 1455 1455 1455 1455 1455 1455 1454 1454 1454 1455 1455 1455 1455 1455 1455 1455 1455
1474 1474 1473 1473 1474 1475 1474 1475 1480 1479 1471 1463 1460 1460 1453 1449 1448 1448 1450 1452 1454 1455 1456 1456 1455 1455 1454 1453 1453 1453 1453 1453 1452 1452 1452 1451 1452 1452 1451 1452 1452 1451 1451 1451
1475 1475 1473 1473 1473 1474 1474 1476 1475 1478 1476 1475 1462 1452 1451 1449 1449 1450 1451 1452 1453 1454 1454 1454 1454 1453 1452 1452 1451 1450 1450 1450 1450 1449 1449 1448 1449 1448 1448 1448 1448 1448 1448 1448
1476 1479 1474 1473 1474 1475 1475 1474 1477 1479 1476 1469 1455 1452 1453 1452 1451 1451 1451 1451 1452 1453 1453 1453 1452 1451 1450 1450 1449 1449 1448 1448 1448 1447 1446 1446 1446 1446 1445 1445 1445 1445 1445 1445
1476 1480 1476 1474 1475 1475 1476 1476 1476 1475 1473 1471 1465 1457 1448 1449 1449 1450 1450 1451 1451 1451 1451 1451 1450 1450 1449 1448 1447 1447 1446 1446 1445 1445 1444 1443 1443 1442 1442 1442 1442 1441 1441 1441
1477 1479 1478 1472 1470 1471 1471 1472 1475 1478 1475 1469 1468 1462 1449 1448 1447 1448 1449 1450 1450 1449 1449 1449 1449 1448 1447 1446 1445 1445 1444 1443 1443 1442 1441 1441 1440 1440 1439 1439 1439 1438 1438 1437
1477 1480 1480 1473 1475 1475 1473 1471 1473 1476 1475 1472 1469 1461 1450 1449 1448 1448 1449 1449 1448 1448 1448 1448 1447 1446 1445 1445 1444 1443 1442 1441 1440 1439 1439 1438 1437 1437 1436 1436 1435 1435 1434 1434
1476 1479 1480 1475 1469 1472 1474 1471 1471 1475 1475 1469 1461 1455 1450 1449 1449 1448 1447 1447 1447 1447 1447 1446 1445 1445 1444 1443 1442 1441 1440 1439 1438 1437 1436 1435 1435 1434 1433 1433 1432 1432 1431 1430
1476 1478 1475 1472 1468 1467 1467 1467 1468 1469 1466 1466 1456 1452 1448 1447 1447 1446 1446 1445 1445 1445 1445 1445 1444 1443 1442 1441 1440 1439 1437 1436 1435 1434 1433 1432 1432 1431 1430 1430 1429 1429 1428 1427
1475 1477 1475 1472 1466 1465 1464 1461 1461 1461 1460 1458 1454 1449 1444 1445 1445 1444 1443 1443 1443 1443 1443 1443 1442 1441 1440 1439 1437 1436 1435 1434 1433 1432 1431 1430 1429 1428 1428 1427 1427 1426 1425 1424
1475 1477 1476 1469 1463 1464 1461 1453 1454 1454 1451 1452 1451 1445 1441 1442 1442 1441 1441 1441 1441 1441 1441 1440 1439 1438 1437 1436 1435 1433 1432 1431 1430 1429 1428 1427 1426 1426 1425 1425 1424 1423 1422 1422
1474 1475 1474 1471 1468 1468 1449 1442 1443 1445 1445 1445 1442 1440 1440 1440 1439 1439 1438 1438 1438 1437 1437 1437 1436 1435 1434 1433 1432 1431 1430 1428 1427 1426 1425 1425 1424 1423 1422 1422 1421 1420 1419 1418
1469 1472 1471 1471 1465 1452 1444 1441 1442 1445 1443 1439 1439 1437 1437 1437 1436 1436 1436 1436 1435 1435 1434 1434 1433 1432 1431 1430 1429 1428 1427 1426 1424 1423 1423 1422 1421 1421 1420 1419 1418 1418 1417 1415
1467 1469 1471 1466 1463 1454 1442 1439 1438 1442 1442 1435 1435 1435 1435 1436 1439 1435 1434 1433 1433 1432 1432 1431 1430 1429 1428 1428 1426 1425 1424 1423 1422 1421 1421 1420 1419 1418 1417 1417 1416 1415 1414 1413
1467 1466 1465 1462 1458 1446 1439 1437 1438 1445 1439 1432 1431 1432 1433 1433 1434 1433 1431 1430 1430 1429 1429 1428 1427 1426 1426 1425 1424 1423 1422 1421 1420 1419 1418 1418 1417 1416 1416 1415 1414 1413 1412 1411
1456 1458 1458 1457 1455 1446 1435 1436 1438 1434 1430 1430 1429 1430 1430 1430 1429 1429 1428 1428 1427 1426 1426 1425 1424 1424 1423 1422 1421 1420 1419 1418 1417 1417 1416 1416 1415 1414 1414 1413 1412 1411 1410 1409
1446 1445 1444 1443 1439 1430 1429 1429 1428 1428 1428 1428 1428 1428 1427 1427 1426 1426 1425 1425 1424 1424 1423 1422 1422 1421 1421 1420 1419 1417 1417 1416 1415 1414 1414 1413 1413 1413 1412 1411 1410 1409 1408 1407
1438 1438 1439 1437 1429 1427 1427 1426 1426 1426 1426 1425 1425 1425 1425 1424 1423 1423 1422 1422 1421 1421 1420 1420 1419 1418 1418 1417 1416 1415 1414 1413 1413 1412 1412 1412 1411 1411 1410 1409 1408 1407 1406 1405
1432 1434 1434 1432 1426 1424 1422 1423 1423 1423 1422 1422 1422 1422 1421 1421 1420 1419 1419 1418 1418 1418 1417 1417 1416 1416 1415 1415 1414 1413 1412 1411 1410 1410 1410 1410 1409 1409 1408 1407 1407 1406 1405 1404
1425 1427 1428 1424 1420 1420 1418 1418 1419 1419 1419 1418 1418 1418 1418 1417 1416 1416 1415 1415 1415 1415 1414 1414 1414 1413 1413 1412 1412 1411 1410 1410 1409 1408 1408 1408 1408 1407 1407 1406 1405 1404 1403 1402